Starlink 35434

operational
NORAD ID: 66247 Int'l Des: 2025-245 Owner: SPXS Country: US Constellation: starlink
LEOCIRCULAR

Über Starlink 35434

Beschreibung wird geladen...

Live-Position

3D-Globus wird geladen...

Nächste Überflüge

Höhenverlauf

Altitude vs Time

uPlot chart will show altitude changes over time

Zweizeiliger Elementsatz

1 66247C 25245N 25303.07618056 .00463690 00000+0 73060-3 0 3034
2 66247 53.1599 182.3372 0004934 304.2142 136.2414 16.02674958 11
Epoch: 30. Okt. 2025 • Age: 25 hours

Aktueller Status

Höhe 268.4 km
Geschwindigkeit 7.75 km/s
Subsatellitenpunkt 23.99°N, 69.88°W
Startdatum 29. Okt. 2025
Alter 2 days
Typ internet

Technische Details

Klassifizierung Payload
Masse 575.00 kg
Trockenmasse 530.00 kg
Gesamtmasse 575.00 kg
Länge 0.30 m
Durchmesser 4.10 m
Spannweite 29.00 m
Form Box + pan
Hersteller SPXS
Bus-Typ Starlink V2MO
Phasenstatus In Orbit
Besitzer/Staat SPXS/US

Große Konstellationen

Loading constellations...